This demonstration page uses our WeatherBlox Daily Observations layout. Learn more.

Left ArrowRight Arrow

47.50024, -111.30081

Hourly Observations for June 26, 2020

Temp ( °F °C ) Dew Point ( °F °C ) Humidity (%) Winds ( mph kmh ) Pressure ( in mb ) Visibility ( mi km ) Precip ( " mm )
12:53 am 00:53 Clear 60 15.6 48 8.9 65 65 SSE 6 9 29.96 1015 10 16 0.00 0.00
1:53 am 01:53 Clear 58 14.4 49 9.4 72 72 SW 12 19 29.95 1014 10 16 0.00 0.00
2:53 am 02:53 Clear 57 13.9 49 9.4 74 74 SSW 10 17 29.94 1014 10 16 0.00 0.00
3:53 am 03:53 Clear 59 15 49 9.4 69 69 SSW 10 17 29.92 1013 10 16 0.00 0.00
4:53 am 04:53 Clear 53 11.7 48 8.9 83 83 WSW 9 15 29.93 1014 10 16 0.00 0.00
5:53 am 05:53 Sunny 54 12.2 48 8.9 80 80 SSW 8 13 29.93 1013 10 16 0.00 0.00
6:53 am 06:53 Sunny 59 15 51 10.6 75 75 SSW 5 7 29.91 1013 10 16 0.00 0.00
7:53 am 07:53 Sunny 66 18.9 51 10.6 59 59 SSW 9 15 29.89 1012 10 16 0.00 0.00
8:53 am 08:53 Sunny 71 21.7 53 11.7 53 53 SW 10 17 29.88 1012 10 16 0.00 0.00
9:53 am 09:53 Sunny 76 24.4 53 11.7 45 45 SSW 15 24 29.87 1012 10 16 0.00 0.00
10:53 am 10:53 Sunny 79 26.1 50 10 36 36 SW 13 20 29.85 1011 10 16 0.00 0.00
11:53 am 11:53 Sunny 80 26.7 50 10 35 35 SSW 10 17 29.84 1011 10 16 0.00 0.00
12:53 pm 12:53 Sunny 82 27.8 50 10 33 33 SW 10 17 29.82 1010 10 16 0.00 0.00
1:53 pm 13:53 Sunny 83 28.3 50 10 32 32 WSW 7 11 29.81 1009 10 16 0.00 0.00
2:53 pm 14:53 Sunny 84 28.9 49 9.4 30 30 WSW 13 20 29.78 1008 10 16 0.00 0.00
3:53 pm 15:53 Sunny 83 28.3 45 7.2 26 26 WSW 12 19 29.77 1008 10 16 0.00 0.00
4:53 pm 16:53 Sunny 84 28.9 47 8.3 27 27 WSW 14 22 29.77 1008 10 16 0.00 0.00
5:53 pm 17:53 Sunny 85 29.4 48 8.9 28 28 SW 15 24 29.74 1007 10 16 0.00 0.00
6:53 pm 18:53 Sunny 83 28.3 48 8.9 30 30 SW 14 22 29.72 1006 10 16 0.00 0.00
7:53 pm 19:53 Sunny 80 26.7 48 8.9 33 33 SW 10 17 29.71 1006 10 16 0.00 0.00
8:53 pm 20:53 Sunny 69 20.6 49 9.4 49 49 SW 10 17 29.72 1006 10 16 0.00 0.00
9:53 pm 21:53 Clear 67 19.4 47 8.3 49 49 WSW 7 11 29.72 1006 10 16 0.00 0.00
10:53 pm 22:53 Clear 64 17.8 46 7.8 52 52 W 7 11 29.71 1006 10 16 0.00 0.00
11:53 pm 23:53 Clear 66 18.9 48 8.9 52 52 S 6 9 29.69 1006 10 16 0.00 0.00

Powered by AerisWeather